GW0019 Weather Reports


time (UTC)temp
C
wind
direction
speed
KPH
gust
KPH
rain 1hr
cm
rain 24hr
cm
rain mn
cm
humidity
%
barometer
mb
20260505235149 10 34 6.4 12.9 0.00 0.33 0.33 72 1012.1
20260505234645 10 34 6.4 12.9 0.00 0.33 0.33 72 1012.0
20260505234142 10 34 6.4 12.9 0.00 0.33 0.33 72 1012.1
20260505233639 10 34 6.4 12.9 0.00 0.33 0.33 72 1011.8
20260505233137 10 34 6.4 12.9 0.00 0.33 0.33 72 1012.6
20260505232634 10 34 6.4 12.9 0.00 0.33 0.33 72 1012.2
20260505232132 10 34 6.4 12.9 0.00 0.33 0.33 72 1012.2
20260505231628 10 34 6.4 12.9 0.00 0.33 0.33 72 1012.1
20260505231127 -17 0.0 0.0 0.00 0.33 0.33 1012.2
20260505230625 -17 0.0 0.0 0.00 0.33 0.33 1012.1
20260505230121 -17 0.0 0.0 0.00 0.33 0.33 1012.0
20260505225617 -17 0.0 0.0 0.00 0.33 0.33 1012.0
20260505225114 -17 0.0 0.0 0.00 0.33 0.33 1012.1
20260505224610 11 47 19.3 19.3 0.00 0.33 0.33 72 1012.0
20260505224108 11 47 19.3 19.3 0.00 0.33 0.33 72 1011.9
20260505223605 11 47 19.3 19.3 0.00 0.33 0.33 72 1011.7
20260505223101 11 47 19.3 19.3 0.05 0.33 0.33 72 1011.7
20260505222558 11 47 19.3 19.3 0.05 0.33 0.33 72 1011.7
20260505222054 11 47 19.3 19.3 0.00 0.33 0.33 72 1011.7
20260505221551 11 47 19.3 19.3 0.00 0.33 0.33 72 1011.6
20260505221047 11 47 19.3 19.3 0.00 0.33 0.33 72 1011.6
20260505220545 11 47 19.3 19.3 0.00 0.33 0.33 72 1011.7
20260505220043 11 47 19.3 19.3 0.00 0.33 0.33 72 1011.3
20260505215540 11 47 19.3 19.3 0.00 0.33 0.33 72 1011.7
20260505215038 11 47 19.3 19.3 0.00 0.33 0.33 72 1011.9
20260505214536 11 17 8.0 11.3 0.00 0.33 0.33 72 1012.5
20260505214032 11 17 8.0 11.3 0.00 0.33 0.33 72 1012.0
20260505213530 11 54 12.9 17.7 0.00 0.33 0.33 72 1011.7
20260505213026 11 46 16.1 17.7 0.05 0.33 0.33 72 1011.4
20260505212523 11 56 6.4 9.7 0.05 0.33 0.33 72 1010.8
20260505212020 11 26 19.3 30.6 0.00 0.30 0.30 72 1010.9
20260505211517 11 26 19.3 30.6 0.00 0.30 0.30 72 1011.2
20260505211014 11 26 19.3 30.6 0.05 0.30 0.30 72 1011.2
20260505210510 12 33 9.7 20.9 0.05 0.30 0.30 72 1011.5
20260505210008 12 132 6.4 9.7 0.05 0.30 0.30 72 1011.5
20260505205506 12 132 6.4 9.7 0.05 0.30 0.30 72 1011.9
20260505205003 12 132 6.4 9.7 0.00 0.28 0.28 72 1011.4
20260505204500 12 132 6.4 9.7 0.00 0.28 0.28 72 1011.7
20260505203957 12 132 6.4 9.7 0.00 0.28 0.28 72 1011.9
20260505203453 12 132 6.4 9.7 0.00 0.28 0.28 72 1011.7
20260505202950 12 132 6.4 9.7 0.00 0.28 0.28 72 1012.0
20260505202447 12 132 6.4 9.7 0.05 0.28 0.28 72 1012.2
20260505201943 12 132 6.4 9.7 0.00 0.28 0.28 72 1011.9
20260505201440 12 132 6.4 9.7 0.00 0.28 0.28 72 1012.0
20260505200938 12 132 6.4 9.7 0.00 0.28 0.28 72 1011.5
20260505200435 13 42 16.1 16.1 0.00 0.28 0.28 72 1011.4
20260505195930 13 42 16.1 16.1 0.00 0.28 0.28 72 1011.7
20260505195428 13 5 12.9 20.9 0.00 0.28 0.28 72 1011.8
20260505194925 13 5 12.9 20.9 0.00 0.28 0.28 72 1012.0
20260505194423 13 5 12.9 20.9 0.00 0.28 0.28 72 1012.1
20260505193922 13 5 12.9 20.9 0.00 0.28 0.28 72 1012.0
20260505193420 13 5 12.9 20.9 0.00 0.28 0.28 72 1011.7
20260505192918 13 5 12.9 20.9 0.00 0.28 0.28 72 1011.6
20260505192416 13 5 12.9 20.9 0.05 0.28 0.28 72 1011.5
20260505191913 13 5 12.9 20.9 0.05 0.28 0.28 72 1011.5
20260505191412 13 5 12.9 20.9 0.00 0.28 0.28 72 1011.9
20260505190908 13 5 12.9 20.9 0.05 0.28 0.28 72 1011.8
20260505190404 13 5 12.9 20.9 0.05 0.28 0.28 72 1011.7
20260505185859 13 53 6.4 11.3 0.05 0.25 0.25 72 1011.8
20260505185356 13 53 6.4 11.3 0.18 0.25 0.25 72 1011.5
20260505184852 16 97 6.4 6.4 0.30 0.25 0.25 73 1011.6
20260505184349 16 97 6.4 6.4 0.23 0.23 0.23 73 1011.8
20260505183846 16 97 6.4 6.4 0.13 0.20 0.20 73 1011.7
20260505183343 16 97 6.4 6.4 0.00 0.18 0.18 73 1012.0
20260505182840 16 97 6.4 6.4 0.05 0.18 0.18 73 1011.7
20260505182336 16 97 6.4 8.0 0.05 0.18 0.18 73 1011.5
20260505181833 16 113 6.4 8.0 0.00 0.18 0.18 73 1011.8
20260505181331 16 114 4.8 4.8 0.05 0.18 0.18 73 1011.3
20260505180827 16 111 1.6 4.8 0.05 0.18 0.18 73 1011.4
20260505180324 16 97 4.8 6.4 0.00 0.15 0.15 73 1011.5
20260505175820 16 72 4.8 4.8 0.05 0.15 0.15 73 1011.5
20260505175317 16 114 3.2 3.2 0.05 0.15 0.15 73 1011.4
20260505174813 16 121 4.8 6.4 0.05 0.15 0.15 73 1011.4
20260505174311 16 110 3.2 8.0 0.05 0.15 0.15 73 1011.7
20260505173806 16 105 3.2 8.0 0.05 0.15 0.15 73 1011.4
20260505173303 16 129 6.4 8.0 0.00 0.13 0.13 73 1011.5
20260505172800 16 129 6.4 8.0 0.00 0.13 0.13 73 1011.6
20260505172257 16 131 3.2 6.4 0.00 0.13 0.13 73 1011.8
20260505171752 -17 0.0 0.0 0.00 0.13 0.13 1011.8
20260505171249 -17 0.0 0.0 0.00 0.13 0.13 1011.9
20260505170746 -17 0.0 0.0 0.00 0.13 0.13 1011.7
20260505170243 -17 0.0 0.0 0.00 0.13 0.13 1011.5
20260505165738 -17 0.0 0.0 0.00 0.13 0.13 1011.5
20260505165234 -17 0.0 0.0 0.00 0.13 0.13 1011.5
20260505164730 -17 0.0 0.0 0.00 0.13 0.13 1011.3
20260505164227 -17 0.0 0.0 0.00 0.13 0.13 1011.3
20260505163725 -17 0.0 0.0 0.00 0.13 0.13 1011.2
20260505163224 17 150 3.2 3.2 0.00 0.13 0.13 73 1011.5
20260505162721 17 150 3.2 3.2 0.00 0.13 0.13 73 1011.6
20260505162218 17 150 3.2 3.2 0.00 0.13 0.13 73 1011.5
20260505161714 17 150 3.2 3.2 0.00 0.13 0.13 73 1011.5
20260505161212 17 150 3.2 3.2 0.00 0.13 0.13 73 1011.4
20260505160709 17 150 3.2 3.2 0.00 0.13 0.13 73 1011.6
20260505160207 17 150 3.2 3.2 0.00 0.13 0.13 73 1011.7
20260505153146 -17 0.0 0.0 0.00 0.13 0.13 1011.6
20260505152643 -17 0.0 0.0 0.00 0.13 0.13 1011.8
20260505152138 -17 0.0 0.0 0.00 0.13 0.13 1011.7
20260505151634 -17 0.0 0.0 0.00 0.13 0.13 1011.7
20260505151132 -17 0.0 0.0 0.00 0.13 0.13 1011.8
20260505150627 -17 0.0 0.0 0.00 0.13 0.13 1011.8
20260505150125 -17 0.0 0.0 0.00 0.13 0.13 1011.7
20260505140553 15 0 1.6 3.2 0.00 0.13 0.13 73 1011.9
20260505125007 15 120 0.0 0.0 0.00 0.13 0.13 73 1011.7
20260505124503 15 120 0.0 0.0 0.00 0.13 0.13 73 1011.5
20260505124000 15 264 4.8 4.8 0.00 0.13 0.13 73 1011.6
20260505123456 15 283 1.6 3.2 0.00 0.13 0.13 73 1011.5
20260505122952 15 162 1.6 1.6 0.00 0.13 0.13 73 1011.1
20260505122450 15 196 4.8 4.8 0.00 0.13 0.13 72 1011.1
20260505121946 15 180 0.0 1.6 0.00 0.13 0.13 72 1010.8
20260505121443 15 60 1.6 6.4 0.05 0.13 0.13 73 1010.8
20260505120939 15 156 4.8 4.8 0.05 0.13 0.13 73 1010.7
20260505120436 15 203 0.0 4.8 0.00 0.13 0.13 73 1010.7
20260505115935 15 157 4.8 9.7 0.00 0.13 0.13 72 1011.1
20260505115432 15 184 9.7 12.9 0.00 0.13 0.13 73 1010.8
20260505114930 15 176 3.2 12.9 0.00 0.13 0.13 72 1010.6
20260505114425 15 199 9.7 11.3 0.00 0.13 0.13 72 1010.6
20260505113922 15 150 9.7 11.3 0.00 0.13 0.13 72 1010.7
20260505113419 14 199 6.4 14.5 0.00 0.13 0.13 73 1010.4
20260505112914 15 149 4.8 11.3 0.00 0.13 0.13 72 1010.3
20260505112413 15 170 9.7 16.1 0.00 0.13 0.13 72 1010.3
20260505111908 15 195 14.5 14.5 0.00 0.13 0.13 72 1010.3
20260505111403 15 135 9.7 12.9 0.00 0.13 0.13 73 1010.3
20260505110859 15 132 11.3 11.3 0.00 0.13 0.13 73 1010.7
20260505110351 15 217 4.8 6.4 0.05 0.13 0.13 73 1011.0
20260505101821 15 198 6.4 6.4 0.13 0.03 0.03 73 1011.5
20260505101316 15 198 6.4 6.4 0.00 0.00 0.00 73 1011.5
20260505100812 15 198 6.4 6.4 0.00 0.00 0.00 73 1011.5
20260505100309 15 198 6.4 6.4 0.00 0.00 0.00 73 1011.1
20260505095805 15 198 6.4 6.4 0.00 0.00 0.00 73 1011.2
20260505095304 15 198 6.4 6.4 0.00 0.00 0.00 73 1011.3
20260505094758 15 156 3.2 4.8 0.00 0.00 0.00 73 1011.5
20260505094255 16 194 3.2 4.8 0.00 0.00 0.00 73 1011.2
20260505093751 16 194 3.2 4.8 0.00 0.00 0.00 73 1011.3
20260505093249 16 180 0.0 1.6 0.00 0.00 0.00 73 1011.2
20260505092746 16 192 1.6 3.2 0.00 0.00 0.00 73 1011.3
20260505092244 16 135 4.8 4.8 0.00 0.00 0.00 73 1011.0
20260505091741 16 135 4.8 4.8 0.00 0.00 0.00 73 1010.7
20260505091239 16 123 6.4 6.4 0.00 0.00 0.00 73 1010.5
20260505090736 16 127 4.8 4.8 0.00 0.00 0.00 73 1010.7
20260505090234 16 144 4.8 6.4 0.00 0.00 0.00 73 1010.7
20260505085731 16 144 4.8 6.4 0.00 0.00 0.00 73 1010.7
20260505085230 16 144 4.8 6.4 0.00 0.00 0.00 73 1010.8
20260505084727 16 144 4.8 6.4 0.00 0.00 0.00 73 1010.7
20260505084226 16 144 4.8 6.4 0.00 0.00 0.00 73 1010.5
20260505083722 16 144 4.8 6.4 0.00 0.00 0.00 73 1010.7
20260505083219 16 147 3.2 4.8 0.00 0.00 0.00 73 1010.7
20260505082715 16 147 3.2 4.8 0.00 0.00 0.00 73 1010.3
20260505082213 16 155 4.8 4.8 0.00 0.00 0.00 73 1010.6
20260505081708 16 174 1.6 3.2 0.00 0.00 0.00 73 1010.3
20260505081206 17 212 3.2 6.4 0.00 0.00 0.00 73 1010.5
20260505080703 17 212 3.2 6.4 0.00 0.00 0.00 73 1010.5
20260505080158 17 212 3.2 6.4 0.00 0.00 0.00 73 1010.7
20260505075654 17 212 3.2 6.4 0.00 0.00 0.00 73 1010.8
20260505075151 17 212 3.2 6.4 0.00 0.00 0.00 73 1010.6
20260505074648 17 212 3.2 6.4 0.00 0.00 0.00 73 1010.6
20260505074145 17 212 3.2 6.4 0.00 0.00 0.00 73 1010.7
20260505073643 17 202 6.4 9.7 0.00 0.00 0.00 73 1010.7
20260505073141 17 202 6.4 9.7 0.00 0.00 0.00 73 1010.8
20260505072636 17 202 6.4 9.7 0.00 0.00 0.00 73 1010.9
20260505072133 17 205 11.3 11.3 0.00 0.00 0.00 73 1010.7
20260505071629 17 209 9.7 16.1 0.00 0.00 0.00 73 1010.9
20260505071127 17 203 11.3 11.3 0.00 0.00 0.00 73 1010.8
20260505070624 17 206 12.9 19.3 0.00 0.00 0.00 73 1010.8
20260505070120 17 214 4.8 11.3 0.00 0.00 0.00 73 1010.9
20260505065616 17 214 4.8 11.3 0.00 0.00 0.00 73 1010.8
20260505065112 17 214 4.8 11.3 0.00 0.00 0.00 73 1010.9
20260505064609 17 214 4.8 11.3 0.00 0.00 0.00 73 1010.9
20260505064108 17 176 6.4 11.3 0.00 0.00 0.00 73 1011.1
20260505063605 17 190 4.8 4.8 0.00 0.00 0.00 73 1011.0
20260505063101 16 198 8.0 11.3 0.00 0.00 0.00 73 1011.1
20260505062557 16 154 4.8 4.8 0.00 0.00 0.00 73 1010.8
20260505062055 17 144 3.2 12.9 0.00 0.00 0.00 73 1011.0
20260505061552 17 144 3.2 12.9 0.00 0.00 0.00 73 1011.1
20260505061050 17 144 3.2 12.9 0.00 0.00 0.00 73 1011.3
20260505060547 17 189 6.4 6.4 0.00 0.00 0.00 73 1011.4
20260505060044 17 189 6.4 6.4 0.00 0.00 0.00 73 1011.6
20260505055539 17 189 6.4 6.4 0.00 0.00 0.00 73 1012.0
20260505055036 17 189 6.4 6.4 0.00 0.00 0.00 73 1011.9
20260505054533 17 189 6.4 6.4 0.00 0.00 0.00 73 1011.9
20260505054032 17 189 6.4 6.4 0.00 0.00 0.00 73 1012.0
20260505053528 17 184 6.4 11.3 0.00 0.00 0.00 73 1011.7
20260505053025 17 184 6.4 11.3 0.00 0.00 0.00 73 1011.8
20260505052522 17 160 4.8 6.4 0.00 0.00 0.00 73 1011.8
20260505052019 17 185 8.0 12.9 0.00 0.00 0.00 73 1011.6
20260505051516 18 181 8.0 12.9 0.00 0.00 0.00 73 1012.1
20260505051014 18 181 8.0 12.9 0.00 0.00 0.00 73 1012.0
20260505050512 18 199 14.5 14.5 0.00 0.00 0.00 73 1012.2
20260505041439 18 195 6.4 11.3 0.00 0.00 0.00 73 1012.4
20260505040937 18 211 4.8 14.5 0.00 0.00 0.00 73 1012.3
20260505040434 18 234 8.0 8.0 0.00 0.00 0.00 73 1012.3
20260505035931 18 234 8.0 8.0 0.00 0.00 0.00 73 1012.6
20260505035427 19 221 9.7 14.5 0.00 0.00 0.00 73 1012.5
20260505034924 19 221 9.7 14.5 0.00 0.00 0.00 73 1012.7
20260505034421 19 213 8.0 12.9 0.00 0.00 0.00 73 1012.6
20260505033918 19 191 4.8 12.9 0.00 0.00 0.00 73 1012.7
20260505033414 19 205 9.7 12.9 0.00 0.00 0.00 73 1012.6
20260505032913 19 197 9.7 17.7 0.00 0.00 0.00 73 1012.8
20260505032409 20 209 8.0 8.0 0.00 0.00 0.00 73 1012.7
20260505031906 20 203 17.7 19.3 0.00 0.00 0.00 73 1012.6
20260505031403 20 192 9.7 22.5 0.00 0.00 0.00 73 1012.6
20260505030900 20 186 6.4 20.9 0.00 0.00 0.00 74 1012.7
20260505030356 20 194 6.4 11.3 0.00 0.00 0.00 73 1012.6
20260505025851 20 180 4.8 20.9 0.00 0.00 0.00 73 1012.4
20260505025349 20 219 19.3 20.9 0.00 0.00 0.00 74 1012.2
20260505024848 20 202 11.3 19.3 0.00 0.00 0.00 73 1012.3
20260505024345 20 202 16.1 22.5 0.00 0.00 0.00 74 1012.2
20260505023842 20 203 14.5 19.3 0.00 0.00 0.00 74 1012.2
20260505023339 20 194 11.3 24.1 0.00 0.00 0.00 74 1012.0
20260505022836 20 214 12.9 16.1 0.00 0.00 0.00 74 1012.1
20260505022333 20 203 11.3 16.1 0.00 0.00 0.00 74 1012.0
20260505021830 20 206 12.9 14.5 0.00 0.00 0.00 74 1011.9
20260505021327 20 198 9.7 12.9 0.00 0.00 0.00 74 1012.0
20260505020822 20 203 9.7 11.3 0.00 0.00 0.00 74 1011.7
20260505020318 20 205 9.7 19.3 0.00 0.00 0.00 74 1011.9
20260505015815 21 204 16.1 16.1 0.00 0.00 0.00 74 1011.5
20260505015313 21 208 9.7 14.5 0.00 0.00 0.00 74 1011.4
20260505014810 21 210 11.3 17.7 0.00 0.00 0.00 74 1011.3
20260505014307 21 200 8.0 11.3 0.00 0.00 0.00 74 1011.5
20260505013803 21 212 8.0 14.5 0.00 0.00 0.00 74 1011.3
20260505013300 21 198 6.4 9.7 0.00 0.00 0.00 74 1011.3
20260505012759 21 204 11.3 16.1 0.00 0.00 0.00 74 1011.4
20260505012256 21 203 14.5 20.9 0.00 0.00 0.00 74 1011.2
20260505011752 21 200 9.7 12.9 0.00 0.00 0.00 74 1011.2
20260505011249 21 207 14.5 19.3 0.00 0.00 0.00 74 1011.2
20260505010744 21 203 8.0 14.5 0.00 0.00 0.00 74 1011.2
20260505010241 22 212 9.7 14.5 0.00 0.00 0.00 74 1011.0
20260505005737 22 218 8.0 17.7 0.00 0.00 0.00 74 1011.1
20260505005234 22 209 16.1 20.9 0.00 0.00 0.00 74 1010.9
20260505004731 22 159 4.8 20.9 0.00 0.00 0.00 74 1011.1
20260505004228 22 202 17.7 20.9 0.00 0.00 0.00 74 1010.9
20260505003725 22 225 14.5 19.3 0.00 0.00 0.00 74 1011.1
20260505003223 23 204 6.4 22.5 0.00 0.00 0.00 74 1010.8
20260505002719 23 243 3.2 19.3 0.00 0.00 0.00 74 1011.2
20260505002217 23 205 9.7 22.5 0.00 0.00 0.00 74 1010.9
20260505001714 23 212 12.9 20.9 0.00 0.00 0.00 74 1010.8
20260505001211 23 218 20.9 20.9 0.00 0.00 0.00 74 1010.8
20260505000708 24 206 17.7 19.3 0.00 0.00 0.00 74 1010.8
20260505000206 23 206 14.5 24.1 0.00 0.00 0.00 74 1010.7
20260504235702 24 223 11.3 30.6 0.00 0.00 0.00 74 1010.7